[[{"header":{"parameterUnit":"m.s-1","parameterCategory":1,"la1":30.2991,"la2":30.254,"lo1":-89.0895,"lo2":-89.0444,"dy":0.0017,"dx":0.0017,"nx":28,"ny":28,"refTime":"2023-09-24T03:00:00:Z","depth":0,"parameterNumber":2,"parameterNumberName":"U-component_of_WINDS"},"data":[0,0,0,0,0,0,0,0,0,0,0,0,0,0,0,0,0,0,0,0,0,0,0,0,0,0,0,0,0,0,0,0,0,0,0,0,0,0,0,0,0,0,0,0,0,0,0,0,0,0,0,0,0,0,0,0,0,0,1.9597,1.9596,0,1.9551,1.9551,1.955,1.9516,1.9516,1.9516,1.9515,1.9467,1.9466,1.9465,0,0,0,0,0,0,0,0,0,0,0,0,0,1.9651,1.965,1.9597,1.9596,1.9595,1.9551,1.9551,1.955,1.9516,1.9516,1.9515,1.9515,1.9468,1.9466,1.9465,0,0,0,0,0,0,0,0,0,0,0,0,0,1.9619,1.965,1.9597,1.9573,1.9571,1.9552,1.9551,1.955,1.9516,1.9516,1.9515,1.9515,1.9468,1.9466,1.9465,1.9465,0,0,1.946,1.946,0,0,0,0,0,0,0,0,1.962,1.9617,1.9577,1.9575,1.9572,1.9539,1.9552,1.9521,1.9516,1.9537,1.9515,1.9515,1.9491,1.9488,1.948,1.9463,1.9461,1.946,1.9459,1.9459,1.9458,0,0,0,0,0,0,0,1.9623,1.9618,1.9579,1.9577,1.9573,1.9564,1.9559,1.9546,1.9517,1.9535,1.9532,1.9528,1.949,1.9482,1.9479,1.946,1.946,1.9459,1.9458,1.9457,1.9438,1.9438,0,0,0,0,0,0,1.9629,1.962,1.958,1.9577,1.9596,1.9563,1.9558,1.955,1.9517,1.9512,1.9528,1.9526,1.9485,1.9481,1.9477,1.9474,1.9459,1.9457,1.9456,1.9437,1.9438,1.9438,0,0,0,0,0,0,1.963,1.9626,1.9582,1.9598,1.9592,1.9563,1.9555,1.9549,1.9541,1.9512,1.9506,1.9526,1.9484,1.9479,1.9468,1.9471,1.9457,1.9455,1.9437,1.9438,1.9438,1.9467,0,0,0,0,0,0,1.9632,1.9626,1.9627,1.9598,1.9591,1.9574,1.9555,1.9549,1.9539,1.9536,1.9508,1.9503,1.9483,1.947,1.9466,1.9469,1.9454,1.9437,1.9437,1.9438,1.9466,1.9469,1.9471,0,0,0,0,0,1.9634,1.9637,1.9627,1.9622,1.9591,1.9575,1.957,1.9548,1.954,1.9539,1.952,1.9504,1.9472,1.9469,1.9465,1.9467,1.9436,1.9437,1.9438,1.9465,1.9468,1.9471,0,0,0,0,0,0,1.9666,1.9633,1.9621,1.9615,1.9598,1.9569,1.9568,1.9553,1.9537,1.9535,1.9508,1.9502,1.9493,1.9479,1.9477,1.9464,1.9452,1.9452,1.9474,1.9477,1.948,1.9483,1.9453,0,0,0,0,0,1.9673,1.9663,1.9634,1.9631,1.9623,1.9597,1.9589,1.9573,1.9554,1.9547,1.9527,1.9508,1.9493,1.9485,1.947,1.9464,1.9456,1.9463,1.9466,1.9468,1.9468,1.9462,1.9464,1.9441,1.9441,1.9441,0,0,1.9686,1.9666,1.9662,1.9637,1.9622,1.9611,1.9591,1.9581,1.9572,1.9545,1.9533,1.9517,1.9495,1.9486,1.9481,1.9474,1.9473,1.9469,1.9471,1.947,1.9463,1.9465,1.9467,1.9442,1.9441,1.9441,0,0,1.9704,1.9689,1.9684,1.9669,1.9646,1.9629,1.9628,1.9601,1.9589,1.9577,1.9555,1.9544,1.9521,1.9505,1.9494,1.9504,1.9488,1.95,1.9514,1.9509,1.951,1.9512,1.9514,1.9516,1.95,1.9501,1.9501,0,1.9723,1.9707,1.9684,1.9674,1.9664,1.9638,1.9633,1.9619,1.9593,1.9585,1.9578,1.9546,1.9529,1.9515,1.9518,1.951,1.9507,1.9503,1.9512,1.9513,1.9514,1.9516,1.9518,1.9502,1.9502,1.9502,1.9502,0,1.973,1.9719,1.9718,1.9693,1.9682,1.9675,1.965,1.9641,1.9626,1.9609,1.9596,1.9574,1.9554,1.955,1.9535,1.9533,1.9529,1.9518,1.9504,1.9519,1.952,1.9521,1.9504,1.9504,1.9503,1.9503,0,0,1.9767,1.9729,1.9729,1.9717,1.969,1.968,1.9671,1.9652,1.9644,1.9626,1.9617,1.9597,1.9585,1.9572,1.9556,1.9551,1.9559,1.9539,1.9538,1.9543,1.9554,1.9562,1.9564,1.9548,1.9549,1.9549,1.9555,0,1.978,1.9764,1.9742,1.9732,1.972,1.9696,1.9688,1.9669,1.9653,1.964,1.9621,1.9607,1.9593,1.9585,1.958,1.9559,1.9561,1.9559,1.9538,1.9538,1.9544,1.9565,1.9574,1.9581,1.9556,1.9556,1.9556,0,1.9793,1.9777,1.9766,1.9738,1.9733,1.9726,1.9705,1.9694,1.9672,1.966,1.9645,1.9627,1.9615,1.9603,1.9585,1.9584,1.9574,1.9563,1.9563,1.9559,1.9547,1.9561,1.9583,1.9584,1.9557,1.9557,1.9557,0,1.982,1.9795,1.9785,1.9776,1.9743,1.9739,1.9725,1.9703,1.9692,1.9674,1.9666,1.9647,1.9636,1.962,1.9597,1.9591,1.9581,1.9568,1.9569,1.957,1.9568,1.9568,1.9588,1.9563,1.9563,1.9563,1.9563,0,1.9836,1.983,1.9796,1.979,1.9782,1.9757,1.9749,1.9733,1.9713,1.9702,1.9679,1.9669,1.9639,1.9625,1.9607,1.9593,1.9589,1.9578,1.9573,1.9579,1.9581,1.9572,1.9571,1.9563,1.9563,1.9563,1.9563,0,1.9865,1.9842,1.9829,1.98,1.9792,1.9787,1.9761,1.9753,1.9735,1.9722,1.9717,1.9688,1.967,1.9645,1.962,1.9607,1.9596,1.9589,1.9604,1.9601,1.9603,1.9603,1.9618,1.9618,1.9594,1.9594,1.9595,0,1.9876,1.9871,1.9841,1.9832,1.9819,1.9806,1.9794,1.9769,1.9758,1.9732,1.9727,1.9707,1.969,1.9663,1.9639,1.9619,1.961,1.9616,1.9607,1.9613,1.9609,1.9609,1.9607,1.9619,1.9619,1.9619,1.962,0,1.9898,1.9887,1.9872,1.9853,1.9841,1.9824,1.9807,1.9801,1.9771,1.9759,1.9741,1.9728,1.9702,1.9682,1.9659,1.9643,1.9626,1.9623,1.9622,1.9628,1.9637,1.9631,1.9609,1.9623,1.9622,1.9622,1.9622,1.9622,1.9918,1.9911,1.9889,1.9873,1.9857,1.9841,1.9831,1.9812,1.9797,1.9774,1.976,1.9742,1.9718,1.9685,1.967,1.9655,1.9648,1.9647,1.9646,1.9646,1.9648,1.964,1.965,1.965,1.965,1.965,1.965,0,1.9938,1.9922,1.9907,1.9884,1.987,1.9856,1.9836,1.9825,1.981,1.979,1.9774,1.9752,1.9732,1.9707,1.9685,1.9678,1.9669,1.9673,1.9673,1.9669,1.9656,1.9658,1.968,1.968,1.968,1.968,1.968,1.968,1.9947,1.9935,1.9921,1.99,1.9884,1.9867,1.9856,1.984,1.9824,1.9801,1.9785,1.9769,1.9746,1.9722,1.9703,1.9696,1.9689,1.9695,1.9685,1.9673,1.967,1.9668,1.967,1.9693,1.9693,1.9699,1.9699,1.9699]},{"header":{"parameterUnit":"m.s-1","parameterCategory":1,"la1":30.2991,"la2":30.254,"lo1":-89.0895,"lo2":-89.0444,"dy":0.0017,"dx":0.0017,"nx":28,"ny":28,"refTime":"2023-09-24T03:00:00:Z","depth":0,"parameterNumber":3,"parameterNumberName":"V-component_of_WINDS"},"data":[0,0,0,0,0,0,0,0,0,0,0,0,0,0,0,0,0,0,0,0,0,0,0,0,0,0,0,0,0,0,0,0,0,0,0,0,0,0,0,0,0,0,0,0,0,0,0,0,0,0,0,0,0,0,0,0,0,0,3.4438,3.4439,0,3.4505,3.4506,3.4507,3.4576,3.4577,3.4578,3.4579,3.4641,3.4641,3.4642,0,0,0,0,0,0,0,0,0,0,0,0,0,3.4365,3.4366,3.4438,3.4439,3.444,3.4505,3.4506,3.4507,3.4576,3.4577,3.4579,3.458,3.464,3.4641,3.4642,0,0,0,0,0,0,0,0,0,0,0,0,0,3.4411,3.4367,3.4438,3.4483,3.4487,3.4505,3.4506,3.4507,3.4576,3.4577,3.4579,3.458,3.464,3.4641,3.4642,3.4619,0,0,3.4645,3.4646,0,0,0,0,0,0,0,0,3.4408,3.4413,3.4475,3.448,3.4485,3.4534,3.4503,3.4544,3.4576,3.4542,3.4579,3.4581,3.4603,3.4608,3.4617,3.4622,3.4625,3.4645,3.4646,3.4647,3.4647,0,0,0,0,0,0,0,3.4405,3.4411,3.4465,3.4476,3.4482,3.4497,3.4505,3.4511,3.4563,3.4545,3.455,3.4558,3.4606,3.4615,3.4619,3.4625,3.4645,3.4646,3.4647,3.4647,3.4615,3.4614,0,0,0,0,0,0,3.4396,3.4408,3.4463,3.4467,3.445,3.4497,3.4507,3.4517,3.4564,3.4572,3.4556,3.4561,3.4613,3.4617,3.4621,3.4597,3.4647,3.4648,3.4648,3.4617,3.4615,3.4613,0,0,0,0,0,0,3.4394,3.44,3.446,3.4439,3.4448,3.4497,3.4508,3.4517,3.4527,3.4572,3.4581,3.4556,3.4614,3.462,3.462,3.46,3.4648,3.4649,3.4618,3.4616,3.4614,3.4548,0,0,0,0,0,0,3.4392,3.4399,3.4392,3.4438,3.4448,3.4459,3.4507,3.4517,3.4529,3.4535,3.4575,3.4582,3.4616,3.4618,3.4621,3.4602,3.465,3.462,3.4617,3.4615,3.4552,3.4544,3.4537,0,0,0,0,0,3.4389,3.4369,3.4391,3.4397,3.4441,3.4457,3.4463,3.4504,3.4527,3.452,3.4549,3.4581,3.4602,3.4617,3.4621,3.4603,3.4622,3.4618,3.4615,3.4556,3.4546,3.4537,0,0,0,0,0,0,3.4316,3.4376,3.4401,3.4396,3.4422,3.4469,3.4461,3.4492,3.4509,3.4514,3.4562,3.457,3.4564,3.4584,3.4599,3.4583,3.4616,3.4614,3.457,3.4561,3.4553,3.4548,3.4651,0,0,0,0,0,3.43,3.4311,3.4362,3.4352,3.4364,3.441,3.4419,3.4449,3.4476,3.4486,3.4515,3.4538,3.4551,3.4557,3.457,3.4556,3.4565,3.4546,3.4538,3.4531,3.4528,3.4521,3.4513,3.4602,3.4602,3.4602,0,0,3.4266,3.43,3.4303,3.4339,3.4362,3.437,3.4419,3.4425,3.443,3.4486,3.4488,3.4511,3.454,3.4533,3.4531,3.4549,3.4505,3.4527,3.4521,3.4521,3.4517,3.4508,3.45,3.46,3.46,3.4601,0,0,3.4208,3.4235,3.4231,3.4254,3.4289,3.4321,3.4319,3.4363,3.4381,3.4385,3.4427,3.4433,3.4453,3.4472,3.4484,3.4435,3.4465,3.4438,3.4397,3.439,3.4383,3.4377,3.4358,3.4351,3.4435,3.4435,3.4435,0,3.416,3.4176,3.4224,3.4228,3.4242,3.4296,3.4291,3.431,3.4347,3.4354,3.4374,3.4401,3.4424,3.4422,3.441,3.4419,3.4417,3.4433,3.438,3.4375,3.437,3.4352,3.4345,3.4431,3.4431,3.4432,3.4432,0,3.4115,3.4125,3.4117,3.4155,3.4168,3.4167,3.4213,3.422,3.4249,3.4277,3.428,3.4311,3.4331,3.4333,3.436,3.4335,3.4345,3.4372,3.4406,3.4357,3.4341,3.4335,3.4426,3.4427,3.4428,3.4429,0,0,3.401,3.4077,3.4072,3.409,3.4134,3.4142,3.4144,3.4167,3.4171,3.4195,3.4196,3.4213,3.4239,3.4253,3.4283,3.4277,3.4235,3.4305,3.4306,3.429,3.4207,3.4185,3.4177,3.4256,3.4255,3.4254,3.4204,0,3.3958,3.3967,3.4011,3.4005,3.4015,3.4067,3.4069,3.4095,3.4122,3.4132,3.4161,3.4172,3.4206,3.4215,3.4211,3.4241,3.4218,3.4245,3.4255,3.4255,3.4244,3.4169,3.4145,3.4097,3.4199,3.4198,3.4197,0,3.3898,3.3922,3.3918,3.3964,3.3969,3.397,3.3994,3.4005,3.4035,3.4055,3.4071,3.4106,3.4109,3.4143,3.4146,3.4163,3.417,3.4185,3.4184,3.4185,3.4221,3.4166,3.4083,3.4075,3.4188,3.4189,3.4189,0,3.3821,3.3851,3.3854,3.3867,3.392,3.3919,3.3941,3.3973,3.3984,3.4005,3.4013,3.4033,3.4043,3.4057,3.4096,3.4117,3.4094,3.4131,3.4109,3.4108,3.41,3.41,3.4015,3.4107,3.4107,3.4107,3.4107,0,3.3757,3.3752,3.382,3.382,3.3816,3.3867,3.3861,3.3887,3.3915,3.3921,3.3967,3.3971,3.4023,3.4031,3.4062,3.4059,3.4064,3.4078,3.4086,3.4073,3.4071,3.4077,3.4081,3.4105,3.4106,3.4106,3.4107,0,3.3669,3.3714,3.3719,3.3771,3.3783,3.3778,3.382,3.3822,3.3853,3.386,3.3864,3.3911,3.3924,3.3965,3.3988,3.4008,3.3996,3.4012,3.3986,3.3991,3.3965,3.3967,3.388,3.387,3.397,3.3969,3.3968,0,3.3624,3.3623,3.3674,3.3683,3.3704,3.3716,3.3729,3.3778,3.3789,3.3824,3.3821,3.3839,3.3856,3.3874,3.3908,3.3926,3.3942,3.391,3.3944,3.3932,3.3939,3.3938,3.3938,3.3902,3.39,3.3899,3.3898,0,3.354,3.3563,3.3581,3.3607,3.3622,3.3643,3.3668,3.3671,3.3726,3.3736,3.3752,3.3765,3.3789,3.3805,3.3829,3.3849,3.3881,3.3888,3.3884,3.3869,3.3854,3.3861,3.3964,3.3889,3.389,3.3891,3.3891,3.3892,3.3471,3.3472,3.351,3.3528,3.3553,3.3575,3.3579,3.3612,3.3627,3.3653,3.3681,3.3693,3.3723,3.3759,3.3777,3.3785,3.3803,3.3797,3.3795,3.3792,3.3786,3.3855,3.379,3.379,3.379,3.3791,3.3791,0,3.3389,3.3416,3.3433,3.3467,3.3481,3.3515,3.3544,3.3553,3.3564,3.3591,3.3608,3.3625,3.3641,3.3679,3.3698,3.3698,3.3713,3.3701,3.37,3.3704,3.3769,3.3771,3.3688,3.3688,3.3688,3.3688,3.3688,3.3688,3.3347,3.3351,3.3378,3.3394,3.3421,3.3435,3.3449,3.3469,3.3491,3.351,3.3525,3.355,3.3581,3.3603,3.3619,3.363,3.3634,3.3616,3.3631,3.369,3.37,3.3709,3.3711,3.3617,3.3617,3.3565,3.3565,3.3564]}]]